#timestamp,LO_Frequency,Hit,StdDev 
1580450415.3,286047001.9,N
1580450435.1,286047004.1,N
1580450455.8,286047003.9,N
1580450475.7,286047001.3,N
1580450495.5,286047001.5,N
1580450515.4,286047001.5,N
1580450535.2,286047002.7,N
1580450555.0,286047002.0,N
1580450555.9,286047002.0,N
1580450575.8,286047002.0,N
1580450595.6,286047002.6,N
1580450615.4,286047002.1,N
1580450635.3,286047001.9,N
1580450655.1,286047001.9,N
1580450675.8,286047002.4,N
1580450695.7,286047001.9,N
1580450715.5,286047002.4,N
1580450735.4,286046999.7,N
1580450755.2,286047000.0,N
1580450775.0,286047000.3,N
1580450775.9,286047000.3,N
1580450795.8,286046999.8,N
1580450815.6,286047004.2,Y
1580450835.5,286046999.9,P
1580450855.3,286047002.8,N
1580450875.1,286047002.2,N
1580450895.9,286047002.3,N
1580450915.7,286047001.6,N
1580450935.5,286047003.9,Y
1580450955.4,286047002.6,P
1580450975.2,286047001.7,P
1580450995.1,286047002.1,P
1580450996.0,286047002.1,Y
1580451015.8,286047001.1,P
1580451035.6,286047000.7,N
1580451055.5,286046998.6,N
1580451075.3,286046998.3,N
1580451095.2,286046998.1,N
1580451115.9,286046998.9,N
1580451135.7,286046996.9,N
1580451155.6,286046996.8,N
1580451175.4,286046997.1,N
1580451195.2,286046999.4,N
1580451215.1,286046999.2,N
1580451216.0,286046999.2,N
1580451235.8,286046996.8,N
1580451255.7,286046996.5,N
1580451275.5,286046996.7,N
1580451295.3,286046999.0,N
1580451315.2,286046998.5,N
1580451335.0,286046999.3,N
1580451335.9,286046999.3,N
1580451355.7,286046998.9,N
1580451375.6,286046999.2,N
1580451395.4,286046996.8,N
1580451415.3,286046996.8,N
1580451435.1,286046997.7,N
1580451436.0,286046997.7,N
1580451455.8,286046996.5,N
1580451475.7,286046998.2,N
1580451495.5,286046997.7,N
1580451515.3,286046996.7,N
1580451535.2,286046998.6,N
1580451555.0,286046998.9,N
1580451555.9,286046998.9,N
1580451575.8,286046996.5,Y
1580451595.6,286046999.8,P
1580451615.4,286047000.6,N
1580451635.3,286047000.1,N
1580451655.1,286047000.9,N
1580451675.9,286046998.5,N
1580451695.7,286047000.4,N
1580451715.5,286047000.9,N
1580451735.4,286047000.6,N
1580451755.2,286047004.4,Y
1580451775.0,286047001.4,P
1580451776.0,286047001.4,N
1580451795.8,286047004.0,P
1580451815.6,286047005.9,Y
1580451835.5,286047003.8,P
1580451855.3,286047003.6,P
1580451875.1,286047002.0,N
1580451895.9,286047002.4,N
1580451915.7,286046999.8,N
1580451935.6,286046999.9,N
1580451955.4,286047000.2,N
1580451975.2,286047000.9,N
1580451995.1,286047000.9,N
1580451996.0,286047000.9,N
1580452015.8,286046999.5,N
1580452035.7,286046996.9,N
1580452055.5,286046999.5,N
1580452075.3,286046999.0,N
1580452095.2,286046999.6,N
1580452115.0,286046997.6,N
1580452115.9,286046997.6,N
1580452135.7,286046997.0,N
1580452155.6,286046996.5,N
1580452175.4,286046997.2,N
1580452195.3,286046995.0,N
1580452215.1,286046995.8,N
1580452216.0,286046995.8,N
1580452235.8,286046996.8,N
1580452255.7,286046998.9,N
1580452275.5,286047000.0,N
1580452295.4,286047000.7,N
1580452315.2,286047001.1,N
1580452335.0,286047000.9,N
1580452335.9,286047000.9,N
1580452355.8,286047000.5,N
1580452375.6,286046996.7,N
1580452395.4,286046996.6,N
1580452415.3,286046999.4,N
1580452435.1,286046996.7,N
1580452455.9,286046999.1,N
1580452475.7,286047001.2,N
1580452495.5,286046999.2,N
1580452515.4,286046999.4,N
1580452535.2,286046999.6,N
1580452555.0,286047000.5,N
1580452555.9,286047000.5,N
1580452575.8,286047001.1,N
1580452595.6,286047000.6,N
1580452615.5,286046998.5,N
1580452635.3,286046998.3,N
1580452655.1,286046998.9,N
1580452675.9,286047000.2,N
1580452695.7,286047000.5,N
1580452715.5,286047002.8,N
1580452735.4,286047000.2,N
1580452755.2,286047000.9,N
1580452775.1,286047000.3,N
1580452776.0,286047000.3,N
1580452795.8,286047000.3,N
1580452815.6,286047000.9,N
1580452835.5,286046998.6,N
1580452855.3,286047000.7,N
1580452875.1,286047000.7,N
1580452895.9,286047000.0,N
1580452915.7,286047000.6,N
1580452935.6,286046999.9,N
1580452955.4,286046998.8,N
1580452975.2,286047000.4,N
1580452995.1,286047001.2,N
1580452996.0,286047001.2,N
1580453015.8,286046999.3,N
1580453035.6,286046999.3,N
1580453055.5,286046998.9,N
1580453075.3,286046998.2,N
1580453095.2,286047001.2,N
1580453115.9,286046999.5,N
1580453135.7,286046998.6,N
1580453155.6,286046998.5,N
1580453175.4,286046998.9,N
1580453195.2,286046999.1,N
1580453215.1,286046998.1,N
1580453216.0,286046998.1,N
1580453235.8,286046999.2,N
1580453255.7,286046998.6,N
1580453275.5,286046999.7,N
1580453295.3,286047000.6,N
1580453315.2,286046996.5,Y
1580453335.0,286046998.6,P
1580453335.9,286046998.6,N
1580453355.8,286046998.5,P
1580453375.6,286046999.1,N
1580453395.4,286046998.4,Y
1580453415.3,286047001.2,P
1580453435.1,286046998.1,N
1580453455.8,286046998.2,N
1580453475.7,286047001.1,N
1580453495.5,286046998.6,N
1580453515.4,286046999.9,N
1580453535.2,286047002.7,N
1580453555.0,286047002.2,N
1580453555.9,286047002.2,N
1580453575.8,286047002.5,N
1580453595.6,286047002.0,N
1580453615.5,286047001.4,N
1580453635.3,286047003.9,N
1580453655.1,286047003.5,N
1580453675.9,286047001.5,N
1580453695.7,286047001.7,N
1580453715.5,286047003.1,N
1580453735.4,286047004.4,N
1580453755.2,286047001.4,N
1580453775.0,286047004.4,N
1580453775.9,286047004.4,N
1580453795.8,286047001.8,N
1580453815.6,286047003.9,N
1580453835.5,286047003.9,N
1580453855.3,286047001.5,N
1580453875.1,286047001.6,N
1580453895.9,286047002.8,N
1580453915.7,286047002.6,N
1580453935.5,286047000.2,N
1580453955.4,286046999.7,N
1580453975.2,286047000.8,N
1580453995.1,286047001.2,N
1580453996.0,286047001.2,N
